Home > Weather > Saint-Denis > Past weeks

Flag for France Past Weather in Saint-Denis, Île-de-France, France — Yesterday and Last 2 Weeks

Now
61 °F

Mostly cloudy.


Feels Like: 61 °F
Forecast: 58 / 71 °F
Wind: 3 mph from North

Location: Paris Le Bourget Airport

Current Time: Jun 28, 2016 at 9:50:48 AM

Latest Report: Jun 28, 2016 at 9:00 AM


Visibility: N/A

Pressure: 30.09 "Hg

Humidity: 77%

Dew Point: 54 °F

Location of Saint-DenisLocation

Past Weather in Saint-Denis — Graph

°F

Saint-Denis Temperature Yesterday

Maximum temperature yesterday: 72 °F (at 4:30 PM)
Minimum temperature yesterday: 59 °F (at 12:00 AM)
Average temperature yesterday: 64 °F

High & Low Weather Summary for the Past Weeks

 TemperatureHumidityPressure
High90 °F (Jun 23, 3:30 PM)94% (Jun 14, 5:00 AM)30.30 "Hg (Jun 14, 5:00 AM)
Low54 °F (Jun 15, 7:00 AM)38% (Jun 25, 5:30 PM)29.47 "Hg (Jun 15, 4:30 AM)
Average64 °F74%29.96 "Hg
* Reported Jun 13 8:00 AM — Jun 28 8:30 AM, Saint-Denis, Weather by CustomWeather, © 2016

Note: Actual official high and low records may vary slightly from our data, if they occured in-between our weather recording intervals... More about our weather records

Advertising

Saint-Denis Weather History for the Previous 24 Hours

Scroll right to see more
 ConditionsComfort  
Time TempWeatherWind HumidityBarometerVisibility
8:30 AM
Tue, Jun 28
61 °FCloudy.5 mph77%30.12 "HgN/A
8:00 AM61 °FPartly sunny.5 mph77%30.12 "HgN/A
7:30 AM59 °FMostly cloudy.3 mph82%30.12 "HgN/A
7:00 AM59 °FBroken clouds.1 mph77%30.12 "HgN/A
6:30 AM59 °FClear.2 mph77%30.09 "Hg10 mi
6:00 AM59 °FMostly cloudy.1 mph77%30.09 "HgN/A
5:30 AM59 °FMostly cloudy.No wind77%30.09 "HgN/A
5:00 AM59 °FOvercast.2 mph77%30.12 "HgN/A
4:30 AM61 °FOvercast.3 mph72%30.12 "HgN/A
4:00 AM61 °FOvercast.1 mph72%30.12 "HgN/A
3:30 AM61 °FMostly cloudy.2 mph72%30.12 "HgN/A
3:00 AM61 °FMostly cloudy.No wind72%30.12 "HgN/A
2:30 AM61 °FOvercast.2 mph72%30.12 "HgN/A
2:00 AM61 °FMostly cloudy.2 mph72%30.15 "HgN/A
1:30 AM61 °FMostly cloudy.2 mph72%30.15 "HgN/A
1:00 AM61 °FMostly cloudy.2 mph72%30.15 "HgN/A
12:30 AM63 °FMostly cloudy.2 mph68%30.15 "HgN/A
12:00 AM63 °FOvercast.5 mph73%30.15 "HgN/A
11:30 PM
Mon, Jun 27
63 °FOvercast.3 mph73%30.15 "HgN/A
11:00 PM63 °FOvercast.2 mph73%30.12 "HgN/A
10:30 PM64 °FSunny.3 mph68%30.12 "Hg10 mi
10:00 PM66 °FPassing clouds.6 mph64%30.12 "HgN/A
9:30 PM66 °FPassing clouds.7 mph68%30.12 "HgN/A
9:00 PM68 °FMild.8 mph64%30.12 "HgN/A
8:30 PM70 °FPartly sunny.8 mph64%30.09 "HgN/A
8:00 PM72 °FPartly sunny.5 mph65%30.09 "HgN/A
7:30 PM70 °FPartly sunny.3 mph73%30.09 "HgN/A
7:00 PM68 °FPartly sunny.5 mph83%30.09 "HgN/A
6:30 PM66 °FPartly sunny.9 mph83%30.12 "HgN/A
6:00 PM70 °FRain. Partly sunny.6 mph73%30.09 "HgN/A
5:30 PM72 °FPartly sunny.6 mph65%30.09 "HgN/A
5:00 PM70 °FPartly sunny.9 mph73%30.12 "HgN/A
4:30 PM72 °FBroken clouds.5 mph65%30.12 "HgN/A
4:00 PM70 °FBroken clouds.6 mph73%30.12 "HgN/A
3:30 PM68 °FPartly sunny.6 mph78%30.12 "HgN/A
3:00 PM64 °FBroken clouds.7 mph88%30.12 "HgN/A
2:30 PM64 °FDrizzle. Partly sunny.8 mph88%30.15 "Hg4 mi
2:00 PM64 °FDrizzle. Broken clouds.9 mph88%30.15 "Hg4 mi
1:30 PM64 °FMostly cloudy.9 mph78%30.12 "HgN/A
1:00 PM66 °FMore clouds than sun.10 mph73%30.15 "HgN/A
12:30 PM64 °FMostly cloudy.10 mph78%30.15 "HgN/A
12:00 PM64 °FMostly cloudy.9 mph78%30.15 "HgN/A
11:30 AM64 °FOvercast.10 mph78%30.15 "HgN/A
11:00 AM63 °FOvercast.10 mph83%30.15 "HgN/A
10:30 AM63 °FOvercast.7 mph83%30.12 "HgN/A
10:00 AM63 °FOvercast.8 mph83%30.15 "HgN/A
9:30 AM61 °FOvercast.6 mph88%30.15 "HgN/A
9:00 AM59 °FOvercast.6 mph94%30.15 "HgN/A
Weather by CustomWeather, © 2016

See weather overviewHow to use our weather pages